User: anonymous   Login
Location: Battersea Observatory
(44.4318°N, 76.3841°W)
Time: 01:56:12
(UTC-04:00)
Language:

S-56A Canister/Altair - Orbit

View from above orbital plane
View from above orbital plane
View from above satellite
View from above satellite

Ground track
Ground track

The orbit data is extracted from the following two-line orbital elements,

1 00082U 61004B   22221.20998934 -.00000030  00000-0  61616-6 0  9994
2 00082  38.8611 180.0925 1172330 261.1040  85.5417 12.26021151903884
Epoch (UTC): 09 August 2022 05:02:23
Eccentricity: 0.1172330
inclination: 38.8611°
perigee height: 635 km
apogee height: 2498 km
right ascension of ascending node: 180.0925°
argument of perigee: 261.1040°
revolutions per day: 12.26021151
mean anomaly at epoch: 85.5417°
orbit number at epoch: 90388

The dashed part of the orbit path shows where the satellite is in the earth's shadow,  

DLR